STARLINK-35381, 65826

Orbit data source: Space-Track

STARLINK-35381, 65826 is a payload satellite owned by SpaceX/Seattle (US) in LEO that was launched on Mon, 29 Sep 2025 UTC via an FALCON 9 launch vehicle from the Air Force Western Test Range (AFWTR). Payload-class satellites include a variety of spacecraft equipped with specific instruments for various scientific and technological missions. These include communications satellites like Starlink; space stations such as the ISS; scientific satellites like the Hubble; Earth observation satellites from companies like Planet Labs, Umbra, and HawkEye 360; GPS; miniature CubeSats for education and research; and military/defense satellites.

Loading next visibility...
Identifier
65826, 2025-221D
Orbit
LEO
Country
Flag of USUS
Related business
Manufacturer
SpaceX/Seattle
Mission
Operational Commercial Communications
Bus & Motor
STARLINK V2MO, Unknown motor
Mass
575 kg wet, ~530 kg dry
Launch date (UTC)
2025-09-29 (9 months ago)
Launch vehicle
FALCON 9
Launch site
Air Force Western Test Range (AFWTR)
Object type
Payload
Rocket body
Debris
Shape & HBR
Box + 2 Pan, 17.7 m
Radar Cross Section
36.964 m², Large (>1 m²)

Expand to show TLE details & history
Last TLE update: 12 hours ago

TLE from 12 hours ago
0 STARLINK-35381
1 65826U 25221D   26171.46296351  .00025597  00000-0  76609-3 0  9991
2 65826  53.1596 329.9002 0001565 107.1858 252.9316 15.34400852 41836
Epoch: 2026-06-20T11:06Z
TLE epoch observation values (Epoch: 2026-06-20T11:06:40.047Z)
Latitude
-0.00001°
Longitude
-105.4439°
Altitude
463.916 km
Speed
7.636 km/s
True Right ascension
21h 59m 36s
True Declination
0° 00' 00"
Sunlit
Object was in full shadow at epoch
Visualization orbit readout
Latitude
Unknown
Longitude
Unknown
Altitude
Unknown
Speed
Unknown
Apparent Right ascension
Unknown
Apparent Declination
Unknown
Sunlit
N/A
Visualization observer readout
Local Sidereal Time
10:19:51
Azimuth
Unknown
Elevation
Unknown
Doppler factor
Unknown
Orbital elements
Apogee altitude
464.028 km
Perigee altitude
461.887 km
Semi-major axis
6,841.095 km
Eccentricity
0.00016
Inclination
53.1596°
RAAN
329.9002°
Arg. of periapsis
107.1858°
True anomaly
252.91446°
Mean anomaly
252.9316°
Eccentric anomaly
252.92303°
Mean motion
3.83579 °/min
Orbital period
93.85 mins
BSTAR
0.00076609
Loading maneuver chart data...
Computing Atmospheric mass density...
Loading historical data...
Loading historical data...
Loading historical data...
Loading historical data...
Loading historical data...
Loading historical data...
Loading historical data...

Documentation

Showing up to 5 results
|